sat.trackr.live / text

‹ back to catalog

STARLINK-30071

NORAD 56708 · 2023-067W

PAYLOAD ACTIVE UNKNOWN

§ Identity

Operator
Country
US
Launch date
2023-05-19
Launch site
AFETR
Launch vehicle
Mass (kg)
RCS (m²)

Purposes: comms

External: N2YO · Heavens-Above · Gunter

§ Orbital elements

Epoch: 2026-05-25T03:57:15.490368Z

Period
94.27 min
Inclination
43.0014°
Eccentricity
0.0002094
Mean motion
15.27579359 rev/d
Perigee alt
481.6 km
Apogee alt
484.5 km
Semi-major
6,861.2 km
B*
1.4732e-4
RAAN
202.7682°
Arg perigee
271.8684°
Mean anomaly
88.1928°
Rev number
16,735

§ Raw data

STARLINK-300711 56708U 23067W   26145.16476262  .00003794  00000+0  14732-3 0  99982 56708  43.0014 202.7682 0002094 271.8684  88.1928 15.27579359167359

JSON: /api/v1/satellites/56708 · /tle

For live sub-satellite position, see the globe view (requires WebGL).

§ Visibility from observer

Set your observer location to see the next 7 days of passes ≥ 10°. The values pass through the URL so the page stays shareable.

No JS? Fill the form by hand. The geolocation button needs JavaScript.